Weather History for KBJI - August, 2012

Change the Weather History Date:

Thursday, August 2, 2012

  Actual Average Record
Temperature  
Mean Temperature 68 °F -  
Max Temperature 78 °F 76 °F 92 °F (1958)
Min Temperature 59 °F 53 °F 45 °F (1948)
Cooling Degree Days 4    
Growing Degree Days 18 (Base 50)    
Moisture  
Dew Point 54 °F    
Average Humidity 62    
Maximum Humidity 100    
Minimum Humidity 32    
Precipitation  
Precipitation 0.00 in - - ()
Sea Level Pressure  
Sea Level Pressure 29.88 in    
Wind  
Wind Speed 6 mph (NNW)    
Max Wind Speed 10 mph    
Max Gust Speed -    
Visibility 10 miles    
Events      
Averages and records for this station are not official NWS values.
T = Trace of Precipitation, MM = Missing Value Source: NWS Daily Summary

Daily Weather History Graph

Daily Weather History Graph

Search for Another Location

Airport or City:

Trip Planner

Search our weather history database for the weather conditions in past years. The results will help you decide how hot, cold, wet, or windy it might be!

Date:

Astronomy

Aug. 02, 2012 Rise Set
Actual Time 5:59 AM CDT 8:51 PM CDT
Civil Twilight 5:23 AM CDT 9:27 PM CDT
Nautical Twilight 4:37 AM CDT 10:12 PM CDT
Astronomical Twilight 3:42 AM CDT 11:06 PM CDT
Moon 8:48 PM CDT (8/2) 6:44 AM CDT (8/2)
Length of Visible Light 16h 03m
Length of Day
14h 52m
Full, 100% of the Moon is Illuminated
Aug 2
Full
Aug 9
Last Quarter
Aug 17
New
Aug 24
First Quarter
Aug 31
Full

Hourly Weather History & Observations

Time (CDT) Temp. Dew Point Humidity Pressure Visibility Wind Dir Wind Speed Gust Speed Precip Events Conditions
12:15 AM 66.2 °F 59.0 °F 78% 29.89 in 10.0 mi WSW 5.8 mph - N/A   Mostly Cloudy
12:35 AM 64.4 °F 59.0 °F 83% 29.89 in 10.0 mi WSW 5.8 mph - N/A   Scattered Clouds
1:35 AM 60.8 °F 59.0 °F 94% 29.88 in 10.0 mi WSW 4.6 mph - N/A   Clear
1:55 AM 64.4 °F 59.0 °F 83% 29.88 in 10.0 mi WSW 4.6 mph - N/A   Clear
2:15 AM 62.6 °F 59.0 °F 88% 29.87 in 10.0 mi West 3.5 mph - N/A   Scattered Clouds
2:55 AM 62.6 °F 60.8 °F 94% 29.86 in 10.0 mi SW 5.8 mph - N/A   Clear
3:15 AM 62.6 °F 60.8 °F 94% 29.86 in 10.0 mi WSW 5.8 mph - N/A   Clear
4:35 AM 60.8 °F 59.0 °F 94% 29.85 in 10.0 mi West 6.9 mph - N/A   Clear
4:55 AM 60.8 °F 59.0 °F 94% 29.85 in 10.0 mi West 6.9 mph - N/A   Clear
5:15 AM 60.8 °F 59.0 °F 94% 29.85 in 10.0 mi WSW 5.8 mph - N/A   Clear
5:35 AM 59.0 °F 57.2 °F 94% 29.85 in 10.0 mi WNW 6.9 mph - N/A   Clear
5:55 AM 59.0 °F 59.0 °F 100% 29.86 in 10.0 mi WNW 5.8 mph - N/A   Clear
6:15 AM 59.0 °F 59.0 °F 100% 29.86 in 10.0 mi NW 6.9 mph - N/A   Clear
6:35 AM 59.0 °F 59.0 °F 100% 29.87 in 10.0 mi NW 5.8 mph - N/A   Clear
6:55 AM 59.0 °F 59.0 °F 100% 29.87 in 10.0 mi NW 5.8 mph - N/A   Clear
7:15 AM 60.8 °F 59.0 °F 94% 29.88 in 10.0 mi NW 6.9 mph - N/A   Clear
7:35 AM 62.6 °F 59.0 °F 88% 29.88 in 10.0 mi NW 8.1 mph - N/A   Clear
7:55 AM 62.6 °F 55.4 °F 77% 29.88 in 10.0 mi NW 8.1 mph - N/A   Clear
8:15 AM 64.4 °F 55.4 °F 73% 29.89 in 10.0 mi NNW 8.1 mph - N/A   Clear
8:35 AM 64.4 °F 55.4 °F 73% 29.88 in 10.0 mi North 10.4 mph - N/A   Clear
8:55 AM 66.2 °F 55.4 °F 68% 29.89 in 7.0 mi North 8.1 mph - N/A   Clear
9:15 AM 68.0 °F 55.4 °F 64% 29.89 in 10.0 mi NNW 6.9 mph - N/A   Clear
9:55 AM 69.8 °F 53.6 °F 56% 29.89 in 10.0 mi North 8.1 mph - N/A   Clear
10:15 AM 71.6 °F 53.6 °F 53% 29.90 in 10.0 mi NNW 8.1 mph - N/A   Clear
10:35 AM 71.6 °F 51.8 °F 50% 29.90 in 7.0 mi NNW 5.8 mph - N/A   Clear
10:55 AM 71.6 °F 51.8 °F 50% 29.90 in 10.0 mi NW 5.8 mph - N/A   Clear
11:35 AM 73.4 °F 51.8 °F 47% 29.90 in 10.0 mi NNW 6.9 mph - N/A   Clear
11:55 AM 73.4 °F 50.0 °F 44% 29.90 in 10.0 mi North 9.2 mph - N/A   Clear
12:15 PM 75.2 °F 50.0 °F 41% 29.90 in 10.0 mi West 9.2 mph - N/A   Clear
12:55 PM 77.0 °F 48.2 °F 36% 29.90 in 10.0 mi NW 10.4 mph - N/A   Clear
1:15 PM 77.0 °F 46.4 °F 34% 29.90 in 10.0 mi NNW 9.2 mph - N/A   Clear
1:35 PM 78.8 °F 46.4 °F 32% 29.90 in 10.0 mi North 6.9 mph - N/A   Clear
2:15 PM 78.8 °F 50.0 °F 36% 29.89 in 10.0 mi NNE 4.6 mph - N/A   Scattered Clouds
2:35 PM 78.8 °F 50.0 °F 36% 29.89 in 10.0 mi NW 4.6 mph - N/A   Mostly Cloudy
2:55 PM 77.0 °F 50.0 °F 39% 29.88 in 7.0 mi NNE 4.6 mph - N/A   Overcast
3:15 PM 77.0 °F 50.0 °F 39% 29.88 in 10.0 mi NNE 8.1 mph - N/A   Mostly Cloudy
3:35 PM 77.0 °F 50.0 °F 39% 29.88 in 10.0 mi North 4.6 mph - N/A   Mostly Cloudy
3:55 PM 78.8 °F 50.0 °F 36% 29.88 in 10.0 mi North 6.9 mph - N/A   Overcast
4:15 PM 78.8 °F 50.0 °F 36% 29.88 in 10.0 mi Calm Calm - N/A   Mostly Cloudy
4:35 PM 78.8 °F 50.0 °F 36% 29.87 in 10.0 mi North 4.6 mph - N/A   Mostly Cloudy
4:55 PM 78.8 °F 50.0 °F 36% 29.87 in 7.0 mi North 6.9 mph - N/A   Mostly Cloudy
5:15 PM 78.8 °F 50.0 °F 36% 29.87 in 10.0 mi North 6.9 mph - N/A   Mostly Cloudy
5:35 PM 78.8 °F 50.0 °F 36% 29.88 in 10.0 mi North 6.9 mph - N/A   Scattered Clouds
5:55 PM 77.0 °F 50.0 °F 39% 29.88 in 10.0 mi North 6.9 mph - N/A   Scattered Clouds
6:15 PM 75.2 °F 50.0 °F 41% 29.88 in 10.0 mi North 4.6 mph - N/A   Scattered Clouds
6:35 PM 78.8 °F 50.0 °F 36% 29.88 in 10.0 mi North 6.9 mph - N/A   Scattered Clouds
6:55 PM 77.0 °F 50.0 °F 39% 29.88 in 7.0 mi North 5.8 mph - N/A   Scattered Clouds
7:15 PM 77.0 °F 51.8 °F 41% 29.88 in 10.0 mi NNE 5.8 mph - N/A   Clear
7:35 PM 75.2 °F 51.8 °F 44% 29.88 in 10.0 mi NNE 5.8 mph - N/A   Clear
7:55 PM 73.4 °F 51.8 °F 47% 29.88 in 10.0 mi NNE 4.6 mph - N/A   Clear
8:15 PM 71.6 °F 51.8 °F 50% 29.88 in 10.0 mi NE 3.5 mph - N/A   Clear
8:35 PM 69.8 °F 53.6 °F 56% 29.88 in 10.0 mi Calm Calm - N/A   Clear
8:55 PM 68.0 °F 53.6 °F 60% 29.89 in 7.0 mi Calm Calm - N/A   Clear
9:15 PM 66.2 °F 53.6 °F 64% 29.89 in 10.0 mi Calm Calm - N/A   Clear
9:35 PM 62.6 °F 51.8 °F 68% 29.90 in 10.0 mi Calm Calm - N/A   Clear
9:55 PM 62.6 °F 53.6 °F 72% 29.89 in 10.0 mi East 4.6 mph - N/A   Clear
10:15 PM 62.6 °F 53.6 °F 72% 29.90 in 10.0 mi Calm Calm - N/A   Scattered Clouds
10:35 PM 62.6 °F 53.6 °F 72% 29.90 in 10.0 mi Calm Calm - N/A   Mostly Cloudy
11:15 PM 60.8 °F 53.6 °F 77% 29.90 in 10.0 mi Calm Calm - N/A   Scattered Clouds
11:35 PM 62.6 °F 53.6 °F 72% 29.90 in 10.0 mi Calm Calm - N/A   Clear
11:55 PM 60.8 °F 53.6 °F 77% 29.89 in 10.0 mi Calm Calm - N/A   Clear